#timestamp,LO_Frequency,Hit,StdDev 
1517338815.3,286046999.5,N
1517338835.2,286046998.8,N
1517338855.0,286046998.1,N
1517338855.9,286046998.1,N
1517338875.8,286047000.4,N
1517338895.6,286047000.0,N
1517338915.4,286047002.8,N
1517338935.3,286047000.1,N
1517338955.1,286047001.8,N
1517338975.8,286047001.4,N
1517338995.7,286047001.7,N
1517339015.5,286047003.7,N
1517339035.4,286047001.3,N
1517339055.2,286046999.9,N
1517339075.0,286047001.0,N
1517339075.9,286047001.0,N
1517339095.8,286046998.2,N
1517339115.6,286047000.5,N
1517339135.5,286047002.4,N
1517339155.3,286047001.5,N
1517339175.1,286047002.8,N
1517339195.9,286047002.1,N
1517339215.7,286047000.2,N
1517339235.5,286046998.9,N
1517339255.4,286046999.4,N
1517339275.2,286046998.8,N
1517339295.1,286046998.3,N
1517339296.0,286046998.3,N
1517339315.8,286046998.4,N
1517339335.6,286047000.3,N
1517339355.5,286047002.1,N
1517339375.3,286047002.5,N
1517339395.2,286047001.6,N
1517339415.9,286047001.6,N
1517339435.7,286047001.4,N
1517339455.6,286047003.7,N
1517339475.4,286047001.3,N
1517339495.2,286047001.3,N
1517339515.1,286047004.3,N
1517339516.0,286047004.3,N
1517339535.8,286047002.6,N
1517339555.7,286047002.8,N
1517339575.5,286047001.4,N
1517339595.3,286047001.7,N
1517339615.2,286047002.6,N
1517339635.0,286047002.5,N
1517339635.9,286047002.5,N
1517339655.7,286047000.2,N
1517339675.6,286047000.3,N
1517339695.4,286046998.7,N
1517339715.3,286046998.7,N
1517339735.1,286047001.2,N
1517339736.0,286047001.2,N
1517339755.8,286047000.5,N
1517339775.7,286047000.0,N
1517339795.5,286047001.2,N
1517339815.4,286047001.0,N
1517339835.2,286047000.8,N
1517339855.0,286046999.7,N
1517339855.9,286046999.7,N
1517339875.8,286047002.5,N
1517339895.6,286047001.6,N
1517339915.4,286047001.9,N
1517339935.3,286047000.2,N
1517339955.1,286047000.8,N
1517339975.9,286046998.2,N
1517339995.7,286046999.5,N
1517340015.5,286046998.9,N
1517340035.4,286046998.1,N
1517340055.2,286046998.8,N
1517340075.0,286046999.2,N
1517340075.9,286046999.2,N
1517340095.8,286046998.8,N
1517340115.6,286047000.7,N
1517340135.5,286046998.3,N
1517340155.3,286047001.0,N
1517340175.1,286047002.4,N
1517340195.9,286047002.8,N
1517340215.7,286047002.7,N
1517340235.5,286047000.4,N
1517340255.4,286047000.3,N
1517340275.2,286046998.7,N
1517340295.1,286046999.1,N
1517340296.0,286046999.1,N
1517340315.8,286046999.6,N
1517340335.7,286046996.5,N
1517340355.5,286046996.6,N
1517340375.3,286046996.9,N
1517340395.2,286046998.5,N
1517340415.0,286047000.9,N
1517340415.9,286047000.9,N
1517340435.7,286046999.7,N
1517340455.6,286047001.6,N
1517340475.4,286047002.0,N
1517340495.3,286047001.6,N
1517340515.1,286047001.9,N
1517340516.0,286047001.9,N
1517340535.8,286047003.6,N
1517340555.7,286047003.6,N
1517340575.5,286047004.0,N
1517340595.3,286047002.1,N
1517340615.2,286047003.9,N
1517340635.0,286047001.3,N
1517340635.9,286047001.3,N
1517340655.8,286047003.9,N
1517340675.6,286047004.2,N
1517340695.4,286047001.5,N
1517340715.3,286047002.1,N
1517340735.1,286047001.9,N
1517340755.8,286047001.9,N
1517340775.7,286047000.1,N
1517340795.5,286046999.8,N
1517340815.4,286047000.2,N
1517340835.2,286046999.9,N
1517340855.0,286047000.5,N
1517340855.9,286047000.5,N
1517340875.8,286047000.9,N
1517340895.6,286047000.5,N
1517340915.5,286046998.6,N
1517340935.3,286046998.5,N
1517340955.1,286046998.9,N
1517340975.9,286046999.3,N
1517340995.7,286046998.6,N
1517341015.6,286046996.8,N
1517341035.4,286046997.9,N
1517341055.2,286046997.3,N
1517341075.1,286046995.3,N
1517341076.0,286046995.3,N
1517341095.8,286046995.0,N
1517341115.6,286046995.2,N
1517341135.5,286046993.7,N
1517341155.3,286046994.1,N
1517341175.2,286046993.6,N
1517341195.9,286046993.9,N
1517341215.7,286046995.5,N
1517341235.6,286046993.9,N
1517341255.4,286046993.8,N
1517341275.2,286046996.0,N
1517341295.1,286046994.5,N
1517341296.0,286046994.5,N
1517341315.8,286046994.4,N
1517341335.7,286046994.2,N
1517341355.5,286046996.3,N
1517341375.3,286046995.1,N
1517341395.2,286046996.3,N
1517341415.0,286046992.1,Y
1517341415.9,286046992.1,P
1517341435.8,286046995.1,N
1517341455.6,286046994.9,N
1517341475.4,286046995.0,Y
1517341495.3,286047001.6,P
1517341515.1,286047002.4,N
1517341535.9,286047000.8,N
1517341555.7,286046998.5,N
1517341575.5,286047000.7,N
1517341595.4,286047000.9,N
1517341615.2,286046998.1,N
1517341635.0,286047000.9,N
1517341635.9,286047000.9,N
1517341655.8,286047002.8,N
1517341675.6,286047000.8,N
1517341695.5,286047000.9,N
1517341715.3,286047002.4,N
1517341735.1,286047002.0,N
1517341755.9,286047001.9,N
1517341775.7,286047001.8,N
1517341795.6,286046999.9,N
1517341815.4,286047000.9,N
1517341835.2,286047000.9,N
1517341855.1,286047000.5,N
1517341856.0,286047000.5,N
1517341875.8,286046998.2,N
1517341895.7,286046998.8,N
1517341915.5,286047001.1,N
1517341935.3,286046999.6,N
1517341955.2,286046999.0,N
1517341975.9,286046997.7,N
1517341995.7,286046998.7,N
1517342015.6,286046999.4,N
1517342035.4,286046999.2,N
1517342055.3,286046997.2,N
1517342075.1,286046997.4,N
1517342076.0,286046997.4,N
1517342095.8,286046999.0,N
1517342115.7,286047001.1,N
1517342135.5,286046998.7,N
1517342155.3,286046997.1,N
1517342175.2,286046996.6,N
1517342195.0,286046998.3,N
1517342195.9,286046998.3,N
1517342215.8,286046998.5,N
1517342235.6,286046996.9,N
1517342255.4,286046999.2,N
1517342275.3,286046997.4,N
1517342295.1,286046997.2,N
1517342315.8,286046996.9,N
1517342335.7,286046999.5,N
1517342355.5,286046999.0,N
1517342375.4,286046998.5,N
1517342395.2,286046998.9,N
